Lexington Weather

Lexington, Massachusetts, USA

25°F
2/29/2020 2:32am 
  • Lexington Conditions: Clear
  • Temperature: 25.3°F / -3.7°CColder 1.1°F than last hour.
  • Dew Point: 14.9°FIncreased 0.9°Fsince last hour.
  • Relative Humidity: 64%Increased 5.0% since last hour.
  • Wind: Calm, 10-min avg: Calm, gust: None
  • Barometer: 29.73 in Steady
  • Visibility: 10 miles
  • Snow Today: 0.0 in
  •   

Regional Weather Roundup
for Boston / Norton, MA

        
000
ASUS41 KBOX 290610
RWRBOX

REGIONAL WEATHER ROUNDUP
NATIONAL WEATHER SERVICE BOSTON/NORTON MA
100 AM EST SAT FEB 29 2020

NOTE:  "FAIR" INDICATES FEW OR NO CLOUDS BELOW 12,000 FEET WITH NO 
SIGNIFICANT WEATHER AND/OR OBSTRUCTIONS TO VISIBILITY.

MAZALL-290700-
EASTERN MASSACHUSETTS
  
CITY           SKY/WX    TMP DP  RH WIND       PRES   REMARKS
BOSTON         FAIR      28   9  44 SW8       29.80S WCI  20          
6HR MIN TEMP:  28; 6HR MAX TEMP:  35;                                

BEVERLY        FAIR      28   9  44 W3        29.78S                  
LAWRENCE       FAIR      27  10  49 S5        29.79S WCI  22          
BEDFORD        FAIR      27   8  44 CALM      29.78S                  
BLUE HILL        N/A     26   8  46 SW8       29.75F WCI  18          
NORWOOD        MOCLDY    24  14  65 CALM      29.80S                  
MARSHFIELD     FAIR      25  18  74 CALM      29.80F                  
PLYMOUTH       MOCLDY    25  16  68 CALM      29.80F                  
TAUNTON        FAIR      21  15  78 CALM      29.80F                  
NEW BEDFORD    FAIR      23  17  78 CALM      29.80F                  
$$

MAZALL-290700-
CAPE COD AND THE ISLANDS
  
CITY           SKY/WX    TMP DP  RH WIND       PRES   REMARKS
FALMOUTH       PTCLDY    25  14  63 CALM      29.81F                  
HYANNIS        FAIR      26  14  60 CALM      29.80F                  
CHATHAM        FAIR      27  13  55 CALM      29.82F                  
PROVINCETOWN   FAIR      33  10  38 W10       29.81F WCI  25          
NANTUCKET      CLOUDY    35  15  44 N7        29.82S WCI  29          
MARTHAS VNYRD  CLOUDY    28  15  58 CALM      29.81F                  
$$
 
MAZALL-290700-
CENTRAL AND WESTERN MASSACHUSETTS
  
CITY           SKY/WX    TMP DP  RH WIND       PRES   REMARKS
WORCESTER      FAIR      22   7  52 SW6       29.73S WCI  14          
6HR MIN TEMP:  21; 6HR MAX TEMP:  28;                                

FITCHBURG      FAIR      26  10  50 S5        29.77S WCI  20          
ORANGE         FAIR      19  14  81 CALM      29.76S                  
SPRINGFIELD    FAIR      22  11  63 SW6       29.77S WCI  15          
WESTFIELD      FAIR      18  11  74 S5        29.78S WCI  11          
NORTH ADAMS    FAIR      24  13  62 W10       29.75F WCI  14          
PITTSFIELD     MOCLDY    23  12  62 W5        29.70F WCI  17          
$$
 
RIZALL-290700-
RHODE ISLAND
  
CITY           SKY/WX    TMP DP  RH WIND       PRES   REMARKS
PROVIDENCE     FAIR      28  14  55 W3        29.80F                  
6HR MIN TEMP:  25; 6HR MAX TEMP:  33;                                

NEWPORT        MOCLDY    32   9  38 S3        29.80F                  
BLOCK ISLAND   FAIR      33   9  36 W6        29.82S WCI  28          
SMITHFIELD     MOCLDY    25  13  60 CALM      29.78F                  
WESTERLY       FAIR      31  11  43 W3        29.82F                  
$$
 
CTZALL-290700-
CONNECTICUT
  
CITY           SKY/WX    TMP DP  RH WIND       PRES   REMARKS
BRADLEY INTL   FAIR      25  10  53 S6        29.79S WCI  18          
6HR MIN TEMP:  24; 6HR MAX TEMP:  32;                                

HARTFORD       FAIR      30  11  45 SW7       29.81S WCI  23          
BRIDGEPORT     FAIR      33   8  35 W10G18    29.82F WCI  25          
DANBURY        FAIR      28   7  41 W6        29.81S WCI  22          
GROTON         CLOUDY    31   9  39 W8        29.81F WCI  23          
NEW HAVEN      FAIR      35  11  36 W10G18    29.82S WCI  27          
CHESTER        FAIR      28   5  37 CALM      29.79F                  
MERIDEN        FAIR      31   7  36 W3        29.81F                  
WILLIMANTIC    FAIR      22  14  71 CALM      29.81S                  
OXFORD         FAIR      28  10  46 W3        29.78F                  
$$

MEZ002-015-021-024-NHZ003-005-008-011-012-014-VTZ005-008-290700-
NORTHERN NEW ENGLAND
  
CITY           SKY/WX    TMP DP  RH WIND       PRES   REMARKS
PORTLAND ME    FAIR      27  10  49 SW8       29.75F WCI  19          
6HR MIN TEMP:  27; 6HR MAX TEMP:  32;                                

BANGOR ME      FAIR      24  10  55 S5        29.71S WCI  18          
CONCORD NH     FAIR      24  12  60 SW7       29.74F WCI  16          
MANCHESTER NH  FAIR      25  12  58 CALM      29.75S                  
NASHUA NH      FAIR      23  14  68 CALM      29.78S                  
PORTSMOUTH NH  PTCLDY    26  10  51 SW5       29.75  WCI  20          
JAFFREY NH     FAIR      18  13  80 S3        29.71F                  
KEENE NH       FAIR      21  16  81 S5        29.76S WCI  15          
BURLINGTON VT  LGT SNOW  20  16  84 N8        29.70S FOG     WCI  10  
MT. WASHINGTON BLWGSNOW  -2  -2 100 W48G58      N/A  VSB 1/16WCI -34  
$$

NYZ052-076-290700-
EASTERN NEW YORK
  
CITY           SKY/WX    TMP DP  RH WIND       PRES   REMARKS
ALBANY         FAIR      23  16  74 S5        29.78S WCI  17          
6HR MIN TEMP:  23; 6HR MAX TEMP:  31; 6HR PCP: TRACE;                

NEW YORK CITY  FAIR      34   9  35 W13G31    29.85S WCI  25          
6HR MIN TEMP:  34; 6HR MAX TEMP:  40;                                

$$
 
ANZALL-290700-
MARINE OBSERVATIONS
  
STATION/POSITION TIME  TEMP    WIND        PRES    VSBY  WAVE
                       AIR SEA DIR/SP/G                  HT/PER
                 (UTC) (F)     (DEG/KT/KT) (MB)    (MI)  (FT/S)
BOSTON BUOY      0550   34 41  220/ 10/ 12 1008.4F         2/10
BUZZARDS BAY     0500          290/  4/  5 1010.9F
NANTUCKET SOUND  0540                        N/A           1/ 4
MASS BAY-STELLWA 0504   34 41  300/ 14/ 16 1006.7F  1 7/8  2/ 4
ISLE OF SHOALS   0600   31     270/ 11/ 14 1007.6F
S OF BLOCK IS    0600      44                N/A           6/ 7
$$

......................KEY.........................
  SKY/WX - SKY CONDITION/PRESENT WEATHER
  TMP    - TEMPERATURE IN FAHRENHEIT
  DWPT   - DEWPOINT IN FAHRENHEIT
  RH     - RELATIVE HUMIDITY IN PERCENT
  WIND   - DIRECTION AND SPEED IN MPH
  PRES   - MEAN SEA LEVEL PRESSURE IN INCHES OF HG
  WCI    - WIND CHILL INDEX
  VSB    - VISIBILITY IN MILES
  HX     - HEAT INDEX
  TC     - TEMPERATURE IN CELSIUS
  VRB    - VARIABLE WIND DIRECTION
  N/A    - NOT AVAILABLE
  
      

Other recent Regional Weather Roundups

Sat Feb 29, 2:10am

Sat Feb 29, 2:00am

Sat Feb 29, 1:00am

Sat Feb 29, 12:10am

Sat Feb 29, 12:00am

Fri Feb 28, 11:10pm

Fri Feb 28, 11:00pm

Fri Feb 28, 10:10pm

Fri Feb 28, 10:00pm

Fri Feb 28, 9:10pm

Fri Feb 28, 9:00pm

Fri Feb 28, 8:10pm

Fri Feb 28, 8:01pm

Fri Feb 28, 7:10pm

Fri Feb 28, 7:00pm

Fri Feb 28, 6:10pm

Fri Feb 28, 6:01pm

Fri Feb 28, 5:10pm

Fri Feb 28, 5:00pm

Fri Feb 28, 4:10pm

Fri Feb 28, 4:01pm

Fri Feb 28, 3:10pm

Fri Feb 28, 3:00pm

Fri Feb 28, 2:10pm

Fri Feb 28, 2:00pm

Fri Feb 28, 1:10pm

Fri Feb 28, 1:01pm

Fri Feb 28, 12:10pm

Fri Feb 28, 12:01pm

Fri Feb 28, 11:10am

Fri Feb 28, 11:00am

Fri Feb 28, 10:10am

Fri Feb 28, 10:00am

Fri Feb 28, 9:10am

Fri Feb 28, 9:01am

Fri Feb 28, 8:10am

Fri Feb 28, 8:00am

Fri Feb 28, 7:10am

Fri Feb 28, 7:00am

Fri Feb 28, 6:10am

Fri Feb 28, 6:00am

Fri Feb 28, 5:10am

Fri Feb 28, 5:00am

Fri Feb 28, 4:10am

Fri Feb 28, 4:00am

Fri Feb 28, 3:10am

Fri Feb 28, 3:00am

Fri Feb 28, 2:10am

Fri Feb 28, 2:00am

Fri Feb 28, 1:10am

Fri Feb 28, 1:00am

Fri Feb 28, 12:10am

Fri Feb 28, 12:00am

Thu Feb 27, 11:10pm

Thu Feb 27, 11:01pm

Thu Feb 27, 10:10pm

Thu Feb 27, 10:00pm

Thu Feb 27, 9:10pm

Thu Feb 27, 9:00pm

Thu Feb 27, 8:10pm

Thu Feb 27, 8:01pm

Thu Feb 27, 7:10pm

Thu Feb 27, 7:00pm

Wed Feb 26, 11:10am

Wed Feb 26, 11:00am

Wed Feb 26, 10:10am

Wed Feb 26, 10:01am

Wed Feb 26, 9:10am

Wed Feb 26, 9:00am

Wed Feb 26, 8:10am

Wed Feb 26, 8:00am

Wed Feb 26, 7:10am

Wed Feb 26, 7:00am

Wed Feb 26, 6:10am

Wed Feb 26, 6:00am

Wed Feb 26, 5:10am

Wed Feb 26, 5:00am

Wed Feb 26, 4:10am

Wed Feb 26, 4:00am

Wed Feb 26, 3:10am

Wed Feb 26, 3:00am

Meta data:

ID: 07422d75-1adb-4ca4-aa05-26747e7db820
Link: https://api.weather.gov/products/07422d75-1adb-4ca4-aa05-26747e7db820